TimeCST,TemperatureF,Dew PointF,Humidity,Sea Level PressureIn,VisibilityMPH,Wind Direction,Wind SpeedMPH,Gust SpeedMPH,PrecipitationIn,Events,Conditions,WindDirDegrees,DateUTC
12:58 AM,32.4,30.4,92,29.89,7.0,Calm,Calm,-,N/A,,Mostly Cloudy,0,2013-12-02 06:58:00
1:58 AM,34.7,32.7,92,29.87,7.0,South,2.3,-,N/A,,Scattered Clouds,170,2013-12-02 07:58:00
2:08 AM,32.0,32.0,100,29.85,7.0,South,5.8,-,N/A,,Mostly Cloudy,190,2013-12-02 08:08:00
2:13 AM,33.8,32.0,93,29.85,3.0,South,6.9,-,N/A,,Mostly Cloudy,190,2013-12-02 08:13:00
2:18 AM,33.8,32.0,93,29.85,0.2,South,6.9,-,N/A,Fog,Fog,190,2013-12-02 08:18:00
2:23 AM,35.6,32.0,87,29.85,0.1,South,5.8,-,N/A,Fog,Fog,180,2013-12-02 08:23:00
2:58 AM,37.6,36.7,97,29.86,0.1,South,2.3,-,N/A,Fog,Fog,190,2013-12-02 08:58:00
3:58 AM,39.4,38.7,97,29.83,0.1,SSW,5.8,-,N/A,Fog,Fog,200,2013-12-02 09:58:00
4:58 AM,39.0,38.3,97,29.83,0.2,SSW,5.8,-,N/A,Fog,Fog,200,2013-12-02 10:58:00
5:33 AM,39.2,39.2,100,29.80,0.2,South,4.6,-,N/A,Fog,Fog,180,2013-12-02 11:33:00
5:58 AM,39.4,38.5,97,29.81,0.2,SSW,6.9,-,N/A,Fog,Fog,210,2013-12-02 11:58:00
6:58 AM,39.9,38.8,96,29.80,0.1,SSW,9.2,-,N/A,Fog,Fog,200,2013-12-02 12:58:00
7:58 AM,40.8,39.4,95,29.80,0.1,South,8.1,-,N/A,Fog,Fog,190,2013-12-02 13:58:00
8:33 AM,41.0,39.2,93,29.77,0.2,South,9.2,-,N/A,Fog,Fog,180,2013-12-02 14:33:00
8:58 AM,41.5,40.1,95,29.78,0.5,South,12.7,-,N/A,Fog,Fog,190,2013-12-02 14:58:00
9:23 AM,42.8,41.0,93,29.76,0.8,South,9.2,-,N/A,,Mist,190,2013-12-02 15:23:00
9:46 AM,42.8,41.0,93,29.76,0.8,SSW,11.5,-,N/A,,Mist,210,2013-12-02 15:46:00
9:58 AM,42.6,40.5,92,29.78,1.0,SSW,11.5,-,N/A,,Overcast,210,2013-12-02 15:58:00
10:03 AM,42.8,41.0,93,29.75,1.2,SSW,11.5,-,N/A,,Overcast,210,2013-12-02 16:03:00
10:58 AM,43.9,40.8,89,29.77,2.5,South,10.4,-,N/A,,Overcast,190,2013-12-02 16:58:00
11:43 AM,44.6,41.0,87,29.72,6.0,SSW,12.7,-,N/A,,Mostly Cloudy,210,2013-12-02 17:43:00
11:57 AM,44.6,41.4,88,29.75,7.0,South,12.7,-,N/A,,Overcast,190,2013-12-02 17:57:00
12:49 PM,46.4,42.8,87,29.73,10.0,SW,11.5,-,N/A,,Overcast,220,2013-12-02 18:49:00
12:58 PM,45.9,43.0,90,29.73,10.0,SW,10.4,-,N/A,,Mostly Cloudy,220,2013-12-02 18:58:00
1:39 PM,48.2,46.4,93,29.68,10.0,SSW,13.8,-,N/A,,Mostly Cloudy,210,2013-12-02 19:39:00
1:58 PM,50.0,48.4,94,29.71,10.0,SW,12.7,-,N/A,,Scattered Clouds,230,2013-12-02 19:58:00
2:10 PM,48.2,48.2,100,29.67,10.0,SSW,12.7,-,N/A,,Mostly Cloudy,200,2013-12-02 20:10:00
2:48 PM,48.2,48.2,100,29.67,10.0,SSW,12.7,-,N/A,,Scattered Clouds,210,2013-12-02 20:48:00
2:58 PM,49.3,48.0,95,29.67,10.0,SSW,13.8,-,N/A,,Scattered Clouds,210,2013-12-02 20:58:00
3:58 PM,49.1,43.7,82,29.69,10.0,SSW,9.2,-,N/A,,Mostly Cloudy,200,2013-12-02 21:58:00
4:58 PM,44.6,41.5,89,29.66,10.0,South,6.9,-,N/A,,Scattered Clouds,180,2013-12-02 22:58:00
5:58 PM,42.4,40.3,92,29.67,10.0,South,6.9,-,N/A,,Mostly Cloudy,180,2013-12-02 23:58:00
6:58 PM,41.5,40.5,96,29.67,10.0,South,6.9,-,N/A,,Scattered Clouds,180,2013-12-03 00:58:00
7:58 PM,42.4,41.0,95,29.66,6.0,South,5.8,-,N/A,,Overcast,170,2013-12-03 01:58:00
8:58 PM,42.1,41.2,97,29.67,6.0,SSW,6.9,-,N/A,,Mostly Cloudy,200,2013-12-03 02:58:00
9:58 PM,41.7,40.5,95,29.65,6.0,South,8.1,-,N/A,,Mostly Cloudy,190,2013-12-03 03:58:00
10:58 PM,40.5,39.4,96,29.65,6.0,SSW,9.2,-,N/A,,Scattered Clouds,200,2013-12-03 04:58:00
11:58 PM,39.9,38.8,96,29.65,4.0,SSW,9.2,-,N/A,,Scattered Clouds,200,2013-12-03 05:58:00